Location: Smyrna_Hopewell
(35.6500°N, 81.0330°W)
Time: 20:56:11
(UTC-04:00)

Cosmos 2221 - Visible Passes

Search period start: 24 April 2017 00:00
Search period end: 04 May 2017 00:00
Orbit: 594 x 617 km, 82.5° (Epoch: 23 April)

Date Brightness Start Highest point End Pass type
(mag) Time Alt. Az. Time Alt. Az. Time Alt. Az.
25 Apr 5.6 04:56:55 10° NE 04:59:28 15° ENE 05:02:00 10° ESE visible
26 Apr 4.8 05:09:06 10° NNE 05:12:41 26° ENE 05:16:16 10° SE visible
27 Apr 3.6 05:21:43 10° N 05:25:51 45° E 05:29:56 10° SSE visible
28 Apr 2.5 05:34:38 10° N 05:38:56 84° E 05:43:11 10° S visible
29 Apr 5.8 04:13:31 10° ENE 04:14:03 10° ENE 04:14:36 10° ENE visible
29 Apr 2.6 05:47:48 10° NNW 05:51:57 52° W 05:56:05 10° S visible
30 Apr 5.2 04:24:24 10° NNE 04:27:20 18° ENE 04:30:15 10° ESE visible
30 Apr 3.4 06:01:13 10° NNW 06:04:55 29° W 06:08:36 10° SSW visible
01 May 4.3 04:36:44 10° NNE 04:40:32 30° ENE 04:44:18 10° SE visible
02 May 3.2 04:49:28 10° N 04:53:40 55° E 04:57:50 10° SSE visible
03 May 2.4 05:02:27 10° N 05:06:44 81° W 05:10:58 10° S visible
